ECMWFFLT1_prec_cthk_198.txt.gz
RH
39 39 41 44 49 53 60 66 68 69 69 69 72 77 75 71 73 73 72 72 73 77 77 75 76 75 73 72 74 76 76 81 85 80 76 80 79 75 76 75 74 72 70 68 67 66 67 69 69 67 67 67 67 67 66 64 64 64 64 63 61 60 60
37 38 39 41 43 46 52 58 61 63 64 64 70 76 75 71 73 75 73 71 72 76 77 74 74 74 71 72 73 74 75 79 84 79 74 77 77 77 79 77 75 74 71 69 68 67 68 69 69 69 69 69 69 68 68 66 65 65 66 65 64 63 62
35 36 38 41 42 44 48 51 55 57 59 62 67 72 74 70 71 76 74 70 71 74 75 73 73 74 73 71 70 71 73 75 80 78 72 71 73 75 80 80 77 76 73 72 71 70 71 71 70 71 71 70 69 68 68 69 68 67 66 65 65 65 62
36 35 37 41 42 44 47 49 52 53 55 61 65 68 73 71 69 73 73 71 72 73 72 72 71 72 72 71 71 72 71 73 78 75 68 66 69 71 75 78 78 77 75 72 72 71 71 71 71 71 72 72 71 70 70 70 69 69 68 67 66 65 63
38 37 38 41 42 44 47 50 52 52 54 61 66 68 71 72 70 72 73 72 72 73 71 70 68 68 69 71 70 69 71 74 76 71 65 65 67 68 71 74 77 77 74 73 73 72 71 71 69 69 72 73 73 71 70 70 70 68 68 67 65 65 64
38 38 39 42 43 44 47 50 51 53 56 60 65 67 69 72 73 73 74 74 71 70 69 67 67 68 70 70 67 65 69 72 71 68 67 69 69 69 70 72 75 76 75 74 75 73 72 70 66 66 71 73 72 71 70 70 70 68 67 67 65 64 63
38 39 40 42 43 43 47 50 51 55 60 62 63 66 67 70 72 72 73 75 71 67 65 65 68 70 71 69 65 65 69 70 69 67 68 69 69 70 71 72 74 76 76 76 75 73 70 69 66 65 70 72 72 71 70 70 71 70 69 68 66 66 64
38 40 40 40 41 42 45 50 51 55 63 65 63 64 65 67 71 73 74 74 72 67 66 66 66 68 71 67 64 67 68 67 66 66 66 67 67 69 71 71 72 75 75 74 73 71 69 67 64 63 67 70 71 71 70 70 73 73 73 71 68 66 64
38 40 40 37 38 40 44 49 52 55 61 64 63 65 66 65 68 72 73 73 71 69 68 68 68 71 72 65 64 67 66 64 65 66 67 68 69 70 71 72 73 75 76 73 70 68 67 65 63 62 64 67 69 70 70 71 72 73 73 71 70 68 65
38 38 37 36 37 41 44 47 50 55 59 59 60 64 66 64 65 67 69 70 68 66 66 67 70 72 67 61 61 63 62 63 67 68 70 72 71 72 74 75 76 77 76 72 68 65 63 62 62 61 62 65 67 68 69 69 71 71 69 68 70 71 67
39 38 35 36 38 41 44 46 47 51 54 53 54 59 62 64 65 65 66 66 65 64 62 63 67 66 58 56 58 60 62 66 67 68 71 73 72 72 75 77 77 76 74 70 66 62 60 60 61 60 60 63 65 65 66 67 68 69 69 68 69 69 68
39 38 36 37 38 38 39 41 43 47 49 50 52 55 58 61 63 63 63 60 58 58 55 56 63 60 52 51 58 63 66 66 66 68 70 72 73 75 75 77 77 76 74 70 66 61 59 61 63 61 61 63 64 64 65 65 66 67 67 67 66 66 66
38 39 37 36 37 36 35 36 40 43 45 48 51 53 55 56 55 54 53 50 50 51 50 52 57 53 45 48 57 64 67 67 66 68 69 72 76 77 77 77 77 77 76 74 70 66 63 62 63 63 64 66 66 66 67 68 68 68 66 65 65 64 64
37 39 39 36 35 35 35 37 39 39 39 41 44 47 48 48 47 45 44 44 45 46 45 47 49 45 38 39 47 56 63 66 68 68 70 74 77 79 79 80 79 78 77 74 72 69 66 65 67 68 69 70 71 71 72 71 69 68 67 66 66 66 66
36 38 38 36 35 35 35 36 36 35 35 35 37 39 40 40 40 41 41 41 42 42 42 43 42 38 34 33 36 43 50 57 62 66 68 72 75 77 79 78 78 78 78 77 75 74 73 73 74 75 75 74 73 71 69 67 66 67 69 70 70 71 71
34 36 36 36 36 36 35 33 31 31 33 34 34 34 35 37 37 36 36 35 36 40 42 41 37 34 34 34 32 33 36 40 46 50 54 58 60 62 64 65 66 68 70 70 69 68 66 64 64 65 67 66 63 62 60 60 59 59 60 62 62 64 67
35 36 36 35 36 36 36 34 31 30 30 31 31 31 32 35 35 33 32 30 32 38 40 39 38 36 35 33 29 28 30 31 32 35 38 41 45 47 49 50 51 52 53 53 53 52 51 50 50 52 53 52 50 49 48 50 51 48 46 47 48 50 53
36 37 37 38 38 36 35 35 33 32 30 28 28 29 29 33 35 34 32 30 31 36 38 38 39 36 33 31 29 29 29 29 30 31 31 32 36 38 40 42 43 43 44 44 45 45 44 44 44 44 45 45 44 43 44 46 45 41 37 37 37 37 38
36 37 38 39 38 35 33 33 33 34 33 30 28 28 29 33 37 36 33 32 33 35 36 37 37 34 32 32 32 32 31 30 30 31 31 31 31 32 34 35 35 36 36 36 36 37 37 36 36 36 39 40 40 40 42 41 38 35 33 32 32 31 30
36 36 38 38 37 34 33 33 33 34 34 32 29 30 32 36 38 36 33 32 34 35 36 36 35 35 36 35 35 35 34 33 34 34 33 33 33 33 34 34 34 34 35 35 34 35 35 34 33 33 34 35 34 35 36 35 34 34 34 32 31 31 30
39 37 38 38 36 35 34 32 32 33 34 32 30 32 36 38 38 37 36 35 36 37 37 37 37 38 38 37 37 37 36 36 37 37 36 36 36 36 36 35 36 36 36 36 36 35 35 34 33 33 34 34 34 34 35 34 34 34 34 32 31 31 31
41 40 39 39 37 34 32 32 32 31 30 30 31 32 35 37 38 38 38 38 38 39 38 37 38 39 38 38 38 38 38 38 38 37 37 36 36 36 36 36 36 36 36 37 37 36 36 35 34 34 33 33 33 33 33 33 32 32 30 29 28 27 29
42 42 41 41 39 35 32 33 33 31 29 29 31 31 31 34 37 38 39 39 38 38 38 37 37 37 37 38 37 37 37 37 37 36 36 35 35 36 36 35 34 35 36 37 36 36 36 35 35 35 34 33 32 31 31 31 31 30 29 26 25 26 28
42 42 41 42 42 38 35 36 36 34 32 32 32 32 31 31 33 36 39 40 40 40 39 39 38 38 38 37 36 36 35 34 34 35 35 35 35 35 35 34 35 35 35 35 35 35 35 35 35 35 34 33 32 31 31 31 31 30 28 25 24 25 26
43 41 40 41 43 40 38 38 36 34 35 34 32 32 31 31 32 32 34 36 39 40 40 39 38 37 36 35 35 35 35 34 34 35 35 35 35 34 34 35 36 35 34 35 35 35 35 35 35 35 35 35 34 33 32 32 31 28 25 23 22 22 23
44 43 41 41 42 42 40 38 35 35 37 36 33 31 32 32 33 32 30 30 32 34 35 36 37 36 36 37 37 36 36 35 35 35 35 35 35 35 35 37 37 36 36 36 36 36 36 36 35 35 35 35 34 33 32 32 31 28 23 21 20 21 21
46 45 44 42 42 44 44 41 38 38 39 37 35 35 35 34 34 34 32 29 29 30 31 33 37 40 40 39 39 39 39 37 37 37 36 35 36 36 37 37 38 38 37 37 37 37 36 36 36 36 35 34 33 33 33 34 34 32 28 24 22 22 23
50 48 46 46 45 46 47 45 42 40 39 38 37 38 38 37 35 34 32 29 29 30 32 36 39 40 39 38 41 43 42 41 41 40 39 39 38 38 38 37 36 36 38 37 37 37 37 36 36 36 36 35 33 33 34 35 35 34 31 28 26 27 28
52 50 49 48 47 47 47 47 46 43 41 42 40 39 40 39 38 36 32 29 29 32 34 35 36 35 35 38 42 45 44 43 43 43 42 43 42 40 39 36 31 32 35 37 37 37 37 37 37 36 37 37 36 35 36 36 35 34 32 30 29 30 30
55 53 51 50 51 50 48 47 49 49 48 47 44 40 40 41 40 38 35 31 31 33 34 34 34 36 38 41 44 45 45 45 45 45 46 46 43 40 39 35 30 32 36 37 37 38 38 37 38 37 37 37 37 36 36 36 36 35 33 31 31 31 32
60 57 54 53 55 57 53 49 49 51 53 52 47 41 40 42 41 39 38 36 35 34 34 35 37 40 43 47 47 47 47 47 47 47 48 47 43 39 38 36 35 37 39 39 39 39 39 38 38 38 38 38 37 36 36 35 36 35 34 32 32 32 32
61 62 60 57 55 58 58 55 51 49 52 55 50 44 42 43 42 42 42 42 40 39 40 41 42 43 47 49 49 49 49 48 49 50 51 49 45 39 36 37 41 42 42 41 41 41 40 40 39 38 38 38 37 36 36 36 36 35 34 34 33 34 34
61 61 64 63 60 58 60 62 60 55 52 53 52 49 46 45 44 46 46 45 45 45 45 46 46 46 47 48 48 49 49 49 49 51 51 50 46 41 38 41 45 46 45 43 42 42 41 41 40 39 39 39 38 37 37 37 37 36 36 36 36 36 36
66 62 65 67 65 61 58 60 64 64 59 56 55 54 53 51 49 51 53 54 53 50 47 47 48 47 48 48 47 48 49 49 49 50 50 49 47 45 44 45 47 48 48 47 45 43 42 42 41 41 40 39 39 38 37 37 37 37 37 36 36 36 37
69 68 67 68 68 67 62 58 60 65 67 65 61 58 57 55 54 55 58 60 58 53 48 47 47 48 50 50 47 46 46 47 48 49 49 48 47 44 43 43 44 46 49 48 45 43 42 41 40 40 40 40 40 39 38 38 37 36 36 34 33 33 34
69 71 71 70 70 71 68 61 58 63 69 71 68 64 61 61 61 60 59 59 59 57 53 50 49 50 53 51 47 46 45 44 46 48 48 49 49 45 41 42 43 43 44 45 43 42 41 41 40 39 39 41 41 39 39 38 36 35 34 33 31 30 31
66 71 73 73 72 72 69 63 60 64 70 73 73 70 68 68 68 65 62 62 62 60 57 54 51 50 51 51 50 49 47 45 46 47 46 47 49 46 43 44 43 42 41 41 41 40 39 40 40 40 40 41 40 38 37 37 36 34 32 31 30 29 29
63 65 69 71 72 71 67 62 63 67 70 72 75 76 74 72 70 67 66 68 67 64 62 61 56 49 47 50 52 52 51 49 47 44 41 42 44 44 43 43 43 41 40 40 41 41 39 39 40 40 40 39 38 37 36 36 34 33 32 31 30 30 29

ECMWFFLT1_prec_cthk_204.txt.gz
RH
41 43 45 47 47 48 55 64 67 68 67 68 71 70 68 67 68 69 70 68 66 65 67 69 71 72 74 77 75 72 73 73 71 70 69 70 69 69 68 66 63 64 63 62 63 64 65 66 67 68 70 70 68 67 66 65 64 63 61 60 59 58 59
38 43 45 43 42 44 50 59 64 68 69 69 71 71 68 66 67 70 72 71 70 69 69 71 73 76 78 77 73 70 72 74 74 73 71 70 71 71 70 68 65 64 64 64 64 63 64 66 66 68 70 69 68 67 68 68 66 63 62 62 60 58 57
38 43 46 43 41 41 44 50 56 62 66 67 70 70 69 67 66 69 71 74 75 73 73 75 75 78 79 76 74 72 74 75 76 74 71 70 71 72 72 71 68 66 65 66 66 65 66 67 67 67 68 69 70 68 69 70 67 65 65 65 63 61 59
41 41 41 40 42 40 39 44 51 57 61 63 65 66 66 67 69 73 75 78 78 76 77 79 77 78 78 76 74 74 76 77 76 73 71 70 70 72 73 73 72 70 68 68 68 68 69 69 68 66 66 70 73 71 70 71 68 67 67 68 68 66 64
43 42 39 39 42 41 39 41 47 53 58 60 61 61 61 66 72 75 78 80 80 80 81 82 81 80 79 76 73 74 77 77 74 72 71 70 70 70 71 71 71 71 71 71 71 71 70 69 68 65 65 69 73 75 76 75 71 68 67 67 67 67 66
41 42 41 41 44 44 43 44 45 48 54 57 58 59 60 66 72 73 75 77 80 82 81 81 83 83 82 79 75 75 79 77 73 72 70 69 69 68 68 68 68 68 70 72 72 71 70 69 68 65 64 67 71 76 79 77 75 72 67 64 64 66 66
41 42 43 42 42 43 45 47 45 46 51 55 58 61 63 66 69 71 73 77 81 82 75 75 83 86 84 81 75 74 77 75 74 73 71 70 69 67 67 68 67 66 67 70 70 71 70 69 68 66 65 67 70 75 79 79 78 73 67 64 65 67 67
42 40 42 43 43 43 43 44 44 44 49 54 58 61 62 64 67 70 75 79 81 80 75 76 83 86 83 80 76 75 74 72 73 72 70 69 68 66 67 67 65 63 64 67 69 71 71 70 70 67 66 69 70 72 76 79 77 72 68 66 66 66 67
42 39 38 39 43 43 39 38 39 43 47 52 56 61 64 65 68 71 75 76 76 79 80 81 84 85 83 80 78 77 73 71 72 72 70 69 67 66 66 65 64 63 65 68 70 72 73 72 71 68 68 71 70 69 72 75 74 71 69 67 66 66 65
40 40 37 38 43 43 38 34 36 41 47 49 54 62 66 66 68 72 73 73 75 77 80 81 82 83 82 79 77 75 72 70 71 72 71 69 67 66 65 64 65 66 67 70 71 72 74 74 72 70 70 69 68 70 71 69 70 72 70 65 65 66 66
36 39 41 46 48 42 36 34 38 44 47 50 56 63 68 71 74 73 71 72 74 73 73 76 78 79 78 76 74 71 69 70 71 71 69 66 65 65 66 65 66 68 69 71 72 73 75 76 76 74 71 69 70 72 70 68 71 73 70 67 68 67 66
36 38 44 51 49 40 35 36 40 45 50 57 65 68 70 71 71 69 68 69 70 67 67 71 73 73 72 71 71 69 69 71 69 66 63 61 62 64 66 68 69 71 72 73 74 75 76 78 80 78 74 73 73 72 69 70 72 71 70 72 72 67 64
36 39 46 51 47 42 41 40 42 47 54 64 70 67 62 58 58 63 67 66 65 64 64 65 67 68 68 68 69 68 67 65 62 61 61 62 65 67 69 72 74 75 75 75 77 79 79 81 82 78 73 72 71 69 70 71 69 69 71 71 68 65 64
40 44 51 53 48 45 44 44 47 51 53 57 55 48 46 47 51 59 61 59 60 60 59 58 60 62 63 65 67 65 63 64 64 66 68 68 69 70 71 73 74 74 75 77 80 82 81 80 80 77 73 69 67 67 69 68 65 67 69 67 65 65 64
44 50 57 56 53 50 48 48 54 56 54 51 43 36 39 44 47 53 54 54 56 54 52 53 55 57 59 60 62 62 62 67 69 69 70 69 69 72 73 74 75 75 77 79 82 83 82 78 78 77 71 65 64 67 68 68 67 67 67 66 66 66 65
44 49 54 54 51 48 48 51 57 60 57 49 40 36 41 44 43 45 48 49 50 47 46 47 49 52 54 54 55 57 61 65 67 66 68 70 70 73 77 78 76 73 73 75 78 82 81 78 74 72 68 64 66 69 70 71 70 69 68 67 66 66 66
41 41 46 49 47 45 46 49 55 61 57 45 37 37 41 44 42 41 42 41 40 39 40 42 42 43 45 45 47 51 55 57 56 56 61 67 70 71 75 78 77 73 70 69 72 76 78 76 71 69 69 68 70 71 70 69 67 64 63 61 58 58 56
43 40 43 50 51 47 47 48 51 57 55 45 39 37 39 42 42 40 39 36 34 34 35 38 39 39 40 41 41 41 41 40 39 42 47 55 61 65 67 70 71 72 72 71 72 75 75 72 70 69 68 69 72 70 66 63 60 55 53 51 48 47 43
49 44 44 52 55 52 50 51 50 53 53 46 39 37 37 37 37 37 37 34 33 34 34 37 39 40 41 40 37 32 29 27 27 31 34 39 47 55 58 59 61 65 68 68 71 73 71 68 67 65 61 60 60 58 52 49 47 46 45 45 42 39 36
53 49 46 49 54 54 53 53 52 52 54 49 42 38 36 34 30 30 32 32 31 31 34 38 39 40 40 37 32 29 27 25 24 26 29 31 35 40 43 45 48 52 52 51 51 53 52 52 52 48 44 41 38 37 37 36 36 36 37 37 36 33 32
54 52 51 50 51 52 52 53 53 53 52 50 44 39 36 33 30 28 27 28 29 29 32 35 36 38 38 35 31 29 27 25 24 25 29 31 31 33 34 34 36 38 37 36 36 36 35 36 35 33 32 31 30 31 32 32 32 33 33 33 32 32 32
55 55 57 55 53 51 50 50 54 54 51 49 46 41 36 33 32 31 31 31 32 32 33 33 34 35 35 33 32 30 26 25 25 26 30 33 34 33 34 34 34 34 34 33 33 33 31 31 31 31 30 30 30 30 30 30 31 31 30 30 30 29 29
57 58 59 57 54 52 51 52 56 57 52 50 49 44 38 33 31 33 34 35 36 37 37 36 36 35 35 35 34 31 28 28 30 32 33 34 34 34 34 34 33 33 33 32 31 31 32 32 32 32 31 30 31 31 31 30 31 30 30 29 27 27 27
54 57 58 55 51 50 51 53 57 58 55 51 49 44 36 31 30 32 33 35 37 38 38 38 38 37 36 35 33 31 31 31 33 35 35 35 35 35 34 34 34 34 34 32 31 32 33 33 33 32 31 30 31 32 32 32 31 30 29 27 25 23 23
53 54 53 50 49 50 52 54 55 57 57 55 52 45 36 30 29 30 32 35 36 36 37 38 38 37 36 35 34 33 34 34 34 34 34 34 34 33 33 33 34 34 33 31 32 33 33 33 32 32 31 31 31 31 31 31 30 29 27 24 21 19 18
59 56 51 48 48 50 53 55 55 56 59 60 57 52 45 38 32 29 33 37 38 39 39 39 38 37 36 36 36 36 35 35 35 35 35 34 34 33 33 34 34 33 31 31 32 33 32 32 32 32 32 32 31 29 29 30 29 28 25 23 20 17 16
66 62 57 52 50 49 52 56 55 55 59 62 61 57 54 52 45 38 37 40 40 40 41 39 38 39 37 36 35 35 35 35 35 36 36 35 34 34 34 34 34 33 32 32 33 33 32 31 32 32 32 33 32 31 31 30 29 27 25 23 21 18 17
69 65 62 58 54 52 54 56 55 55 57 61 61 59 57 58 55 45 40 41 43 42 42 41 40 40 37 36 37 37 37 37 38 38 37 36 36 36 35 35 34 33 33 34 33 34 34 33 33 32 32 33 33 32 31 30 29 28 27 25 23 21 20
69 66 64 63 60 57 56 55 55 55 56 58 60 60 59 62 61 51 44 42 43 44 43 43 43 43 41 40 42 43 43 43 42 43 42 41 41 40 39 39 38 37 37 36 35 35 35 34 34 33 33 33 33 33 33 31 30 30 29 27 25 23 23
68 69 68 66 63 61 59 58 58 58 59 61 61 59 59 62 62 57 49 45 43 45 46 45 45 46 46 45 46 45 45 46 45 45 45 45 45 44 43 44 43 42 41 38 37 36 34 32 33 33 33 33 33 32 33 32 30 30 30 28 26 25 25
67 68 69 68 66 64 64 64 62 61 62 63 61 58 56 58 58 55 50 46 43 44 46 46 45 46 47 47 48 47 46 47 48 47 47 47 48 47 47 46 45 42 40 38 36 36 36 35 35 35 35 34 33 32 32 32 31 30 30 28 27 27 28
65 66 67 67 68 69 69 67 66 63 61 62 63 61 57 57 58 55 52 51 49 48 47 45 44 45 46 47 47 48 48 48 49 48 47 48 48 49 49 48 46 43 41 40 39 40 41 41 41 41 40 37 35 35 34 32 32 32 31 31 30 30 30
66 66 65 62 64 70 72 70 67 65 61 60 63 64 62 59 59 58 57 56 55 54 54 51 45 43 44 46 47 48 49 49 49 49 48 47 47 47 48 48 46 44 43 43 44 45 45 46 45 44 44 42 41 39 38 36 35 35 35 35 34 33 33
69 68 66 60 59 65 72 73 72 68 63 58 59 63 65 64 63 62 61 60 58 57 57 56 51 44 43 45 48 49 49 49 48 48 47 46 46 45 45 46 46 45 44 45 45 46 45 45 45 44 44 45 43 41 40 39 39 38 37 37 36 35 36
70 69 68 64 59 60 65 71 74 74 68 61 58 61 66 67 66 63 61 60 61 59 57 57 55 50 46 46 47 48 49 48 47 47 46 45 45 45 44 45 46 47 47 46 45 46 46 46 46 46 46 46 44 42 42 42 40 38 36 36 36 35 34
69 71 72 69 63 60 60 63 66 68 67 65 62 62 63 64 64 63 61 60 63 64 62 59 56 54 52 49 47 48 49 48 46 45 45 44 45 46 46 45 45 45 47 47 46 46 47 48 47 47 46 45 43 41 42 42 41 38 37 37 36 35 33
67 70 73 72 68 64 62 60 59 58 57 58 60 62 64 65 63 62 61 60 61 64 65 62 59 57 54 51 47 48 49 49 46 44 44 44 45 48 50 49 46 43 43 44 46 46 46 46 46 45 44 41 38 38 38 38 38 38 38 37 36 35 33
60 63 67 69 70 69 65 61 59 56 54 55 57 59 63 67 66 64 62 60 59 61 64 64 62 59 55 53 51 49 49 50 49 46 45 45 47 51 53 53 50 45 40 40 42 43 44 43 43 43 42 38 36 36 35 34 34 35 35 35 35 36 35

ECMWFFLT1_prec_cthk_210.txt.gz
RH
46 46 46 47 47 48 52 62 71 72 70 70 72 75 75 76 77 75 71 71 70 68 67 65 65 68 70 70 71 72 72 71 71 71 72 72 71 70 69 68 68 67 69 70 68 66 66 66 66 66 65 64 65 66 66 66 66 67 67 66 64 64 64
47 47 47 46 45 46 48 53 64 72 71 70 72 74 75 76 77 77 74 73 72 70 69 67 67 70 71 72 72 72 72 72 71 71 72 73 74 74 73 71 70 70 71 71 70 68 67 67 67 65 64 64 64 64 66 68 68 68 68 67 66 66 66
47 49 49 45 44 45 46 47 53 64 71 72 73 75 77 78 79 78 76 75 74 73 72 70 69 71 70 71 71 71 71 73 72 71 71 73 74 76 77 76 75 74 74 73 72 70 69 67 65 64 63 64 64 65 66 68 68 69 68 67 68 68 66
45 49 49 46 46 46 47 46 46 53 64 72 75 78 79 80 79 77 75 75 76 75 72 70 69 70 70 69 70 70 71 72 73 72 73 74 74 76 77 78 76 75 74 74 73 72 70 68 65 64 65 65 65 64 64 65 66 67 67 67 68 68 67
42 46 47 47 48 48 48 47 46 46 51 59 66 71 72 73 75 75 74 76 78 77 74 72 71 71 70 70 70 71 72 73 74 74 76 77 76 76 77 78 76 74 74 74 74 74 74 71 67 65 65 65 64 63 63 64 64 65 66 67 68 67 66
40 43 47 47 45 45 44 43 43 42 44 46 50 57 63 67 70 73 76 77 78 78 77 76 75 74 73 72 71 73 73 75 76 77 78 79 78 78 79 79 77 74 73 74 74 75 75 73 68 66 66 65 65 65 64 64 64 64 66 67 67 67 66
40 40 44 45 44 43 42 41 39 40 45 47 47 52 60 66 69 72 75 77 77 77 78 77 77 76 75 74 73 73 73 75 77 79 79 79 79 79 81 81 79 76 75 74 74 75 75 74 71 69 69 68 68 69 67 66 65 65 66 67 68 68 67
41 40 41 45 46 44 44 44 40 40 45 49 50 53 56 62 68 70 72 75 75 76 76 76 75 75 75 75 75 75 75 77 78 78 79 78 78 79 81 82 81 78 76 75 73 73 73 73 72 72 73 73 73 73 71 69 68 67 68 70 70 69 67
43 41 40 42 44 45 45 44 40 40 46 51 54 55 56 61 67 68 70 72 73 73 74 74 73 73 74 75 75 75 77 79 79 79 79 79 78 78 80 82 81 79 77 75 73 72 72 72 71 71 73 74 74 73 71 71 70 69 69 72 72 70 67
44 41 41 43 44 46 45 43 42 43 47 53 57 57 59 63 67 69 70 71 71 72 73 74 74 73 74 76 76 77 78 80 79 79 81 80 78 78 80 81 81 79 77 75 73 72 71 69 68 68 68 70 72 72 71 70 70 69 70 72 72 71 69
45 41 41 43 46 47 46 45 45 46 49 55 58 58 61 64 67 69 71 71 70 72 74 76 76 75 77 80 82 83 82 82 81 80 82 81 76 74 77 79 79 77 75 74 72 71 69 67 66 65 66 68 72 73 72 72 70 69 70 71 72 71 70
45 41 41 43 45 45 44 46 48 49 53 55 56 57 59 63 66 68 70 71 72 73 74 76 77 77 80 83 85 84 83 82 81 81 82 79 74 73 75 76 75 74 73 72 71 70 67 65 65 66 67 70 73 75 75 74 72 70 71 72 72 71 69
47 44 44 47 48 45 44 47 50 53 56 55 54 54 56 59 65 69 71 74 75 75 76 76 77 77 79 82 83 82 81 82 82 81 80 77 75 74 73 72 72 72 71 71 69 67 67 66 66 67 69 71 73 76 77 76 73 71 73 73 72 70 69
47 47 47 49 52 51 48 47 49 53 57 55 52 53 56 58 63 68 71 75 76 77 77 77 76 74 75 79 82 82 82 81 79 78 76 74 73 72 70 70 70 69 69 69 68 68 68 68 68 69 71 72 72 75 79 76 72 72 74 74 72 71 71
46 49 51 49 49 52 52 49 51 54 56 56 51 51 56 59 62 65 69 71 74 75 75 75 72 70 71 75 78 80 79 76 75 74 73 72 71 71 71 71 70 69 71 72 72 72 71 71 72 73 75 75 75 78 80 77 73 73 74 73 71 71 72
48 49 51 49 48 50 51 50 52 54 54 55 52 50 54 57 59 62 65 68 72 73 73 71 68 66 69 72 74 74 74 74 74 74 72 71 71 72 72 71 71 73 75 75 75 75 76 76 76 76 77 77 79 81 82 79 76 74 73 71 70 71 72
50 47 48 49 49 51 52 51 52 53 54 53 51 51 54 56 57 58 61 65 70 71 70 68 67 67 69 71 72 72 73 74 75 74 74 73 72 72 73 74 76 78 78 77 78 79 79 79 79 79 80 81 83 84 82 79 76 73 71 71 71 72 71
51 49 49 49 50 52 58 60 57 55 57 55 52 52 55 57 56 56 59 63 66 67 68 68 69 68 67 68 69 69 71 73 75 74 72 71 72 74 78 80 81 81 81 81 81 82 81 80 79 79 80 81 81 80 77 75 74 73 73 73 73 72 70
52 51 51 52 54 54 58 64 64 60 59 57 53 51 53 57 57 55 57 60 60 61 62 65 66 63 61 62 63 64 66 68 67 62 60 65 72 75 77 78 80 81 82 82 82 83 81 79 78 77 79 79 78 76 76 74 74 73 71 69 67 66 65
51 52 51 54 61 60 57 60 63 60 56 55 54 49 47 52 58 57 57 56 54 53 54 56 57 55 55 55 55 55 56 55 53 50 52 61 69 70 68 70 75 79 81 82 81 81 79 78 78 77 78 78 77 77 77 73 69 67 65 64 62 60 58
51 52 51 55 63 63 56 55 58 60 58 56 56 51 44 45 54 57 56 51 48 48 49 50 50 49 47 46 44 42 41 40 40 42 45 50 55 57 57 60 65 69 74 76 77 78 78 79 79 77 75 74 75 75 74 70 67 65 62 60 55 50 48
49 49 50 55 61 62 57 53 56 61 61 57 56 53 44 39 45 52 54 50 46 45 45 46 48 47 44 42 38 35 34 34 34 36 37 38 40 43 45 46 49 51 53 56 58 61 64 65 66 64 61 61 61 60 59 56 54 53 49 44 41 38 37
46 45 47 53 58 61 60 56 54 56 57 55 55 54 45 35 36 45 51 50 45 42 42 44 46 46 45 42 37 34 33 33 33 34 36 34 34 35 36 36 36 36 37 38 39 40 42 43 43 42 41 40 40 40 40 39 38 37 35 33 33 32 31
46 45 46 49 54 59 63 60 53 53 58 56 52 52 48 38 32 36 43 45 43 39 40 42 43 45 44 41 39 39 37 36 34 34 35 34 34 34 34 33 33 33 34 35 34 34 35 34 34 34 34 33 33 32 33 33 33 32 32 32 31 31 30
49 48 48 48 51 56 63 63 55 53 57 57 53 53 52 43 37 36 38 41 42 40 39 41 43 45 43 39 42 43 41 38 37 36 35 36 35 34 34 33 34 33 33 33 33 33 33 33 33 34 33 32 32 32 32 32 32 33 33 32 32 31 29
53 52 51 50 52 55 59 64 62 57 57 57 57 59 57 50 45 42 40 42 45 41 39 41 44 44 42 41 44 45 41 39 38 36 36 36 34 34 34 33 33 33 32 31 31 31 30 30 31 31 31 30 30 31 31 31 31 32 32 31 30 28 26
56 56 53 52 55 57 59 63 64 63 64 63 61 63 64 59 51 46 43 45 47 42 38 39 42 41 41 43 44 43 40 39 37 36 36 35 34 35 35 35 34 34 33 33 33 32 31 30 28 28 28 28 27 28 28 29 29 29 30 29 28 26 23
58 59 58 56 57 58 60 61 62 62 67 69 70 71 68 59 52 50 47 46 45 42 40 40 41 41 42 43 41 39 38 38 38 38 38 37 36 37 37 36 36 35 34 34 34 33 32 31 31 31 30 30 31 30 30 31 30 30 29 29 28 26 24
59 58 61 63 62 61 61 61 61 64 68 71 75 77 68 55 52 54 51 47 48 49 47 44 43 44 44 41 39 38 38 39 40 39 39 38 38 37 36 36 36 35 35 35 35 34 33 31 32 34 34 34 34 33 32 31 31 30 29 28 28 27 26
61 61 64 66 66 66 65 64 63 68 72 72 73 74 67 55 51 53 50 48 52 56 53 47 45 45 44 41 39 39 40 42 42 41 40 40 38 37 37 36 36 37 37 37 36 34 33 31 32 33 35 35 33 32 31 31 32 33 33 31 30 29 27
64 65 66 68 68 67 67 68 65 67 72 71 67 71 71 61 55 53 49 47 54 59 55 49 47 45 44 43 43 43 44 44 44 44 42 42 40 40 39 40 40 41 40 38 34 32 32 32 32 33 34 34 33 33 34 34 35 36 35 35 33 30 28
68 68 66 68 69 67 67 69 68 68 71 68 65 70 76 71 65 59 52 51 60 62 55 50 49 46 45 45 45 45 46 46 46 45 43 42 42 41 41 42 41 40 38 36 33 32 33 34 34 36 38 38 38 38 37 37 38 38 38 37 34 32 31
70 70 67 66 69 70 70 71 71 69 69 68 67 72 78 76 71 65 57 58 66 65 57 52 51 47 46 47 47 47 47 47 48 48 46 44 43 42 41 39 37 35 33 32 32 32 33 34 37 39 40 40 40 40 39 39 38 37 36 36 34 33 32
69 71 69 67 68 70 71 73 74 72 68 66 66 71 76 78 75 71 65 66 70 70 64 58 53 48 46 47 46 48 49 49 49 49 49 47 45 42 39 35 32 31 31 30 30 31 32 33 36 38 40 40 40 40 40 40 39 37 35 34 34 34 34
66 69 71 70 67 66 68 74 78 77 71 68 70 71 73 75 77 79 80 78 77 76 72 64 58 53 50 47 46 48 50 51 51 50 49 48 46 44 40 37 34 33 31 29 28 29 29 31 34 36 37 39 39 39 38 39 41 39 36 35 36 36 36
62 65 69 70 67 64 66 70 74 76 74 73 76 77 75 73 74 80 88 91 88 84 77 69 64 60 55 52 50 49 48 50 51 51 50 48 47 45 43 41 39 38 36 32 30 28 27 29 30 32 33 35 36 37 37 38 39 38 37 36 36 37 37
61 62 65 68 66 63 64 65 67 70 71 72 74 78 77 73 68 69 77 87 90 88 83 75 70 67 62 58 55 52 50 50 52 54 55 53 50 48 46 44 43 42 41 38 35 31 29 28 28 29 31 33 34 35 36 37 38 39 38 37 36 37 37
61 60 62 66 65 64 65 64 62 64 67 68 69 73 74 73 69 66 68 74 80 83 83 80 77 75 72 66 62 60 58 57 56 58 59 59 56 53 50 48 46 45 45 43 41 38 35 33 32 32 31 31 32 33 34 35 35 36 37 36 36 37 39

ECMWFFLT1_prec_cthk_216.txt.gz
RH
44 43 43 42 42 43 44 46 47 50 57 64 69 73 74 74 73 69 69 70 64 58 57 56 56 58 60 61 61 60 58 56 57 58 58 58 57 55 53 53 53 54 54 55 56 56 56 58 57 57 57 59 60 60 59 59 59 60 61 62 62 63 65
45 45 46 45 44 44 44 44 45 47 53 60 66 71 74 76 74 72 71 71 67 62 60 58 56 57 60 62 62 61 60 59 59 60 60 59 58 56 55 56 57 57 58 59 60 60 60 60 60 60 60 61 62 62 62 61 59 60 61 62 62 63 65
47 48 48 48 47 46 45 45 44 44 48 53 61 66 70 74 75 72 71 71 70 67 65 61 59 57 59 61 62 62 62 62 62 63 64 63 60 57 56 59 62 63 63 63 63 64 64 65 65 65 65 64 64 65 65 64 62 61 61 62 63 64 65
50 51 49 49 49 48 48 47 46 46 45 47 54 60 63 68 71 71 70 70 71 70 68 66 63 60 59 61 61 62 62 64 65 65 66 67 65 63 62 64 67 68 68 67 67 67 66 67 69 70 69 68 68 67 67 66 64 62 61 62 64 65 66
54 54 53 51 50 48 47 47 48 48 47 45 47 52 57 62 67 68 68 68 68 69 71 72 68 64 62 61 62 62 63 64 65 66 68 69 70 68 68 68 68 70 71 72 72 71 71 71 72 72 71 71 70 69 68 67 66 64 63 63 63 64 66
55 54 54 53 51 50 48 47 47 48 49 48 46 48 52 56 60 64 66 66 66 67 69 71 71 69 67 66 64 64 64 65 65 67 69 71 72 71 70 69 69 69 72 75 76 77 76 75 74 73 72 72 73 72 70 69 68 66 65 64 64 65 66
57 56 54 52 50 51 50 49 48 48 49 51 50 50 51 53 56 59 62 65 68 69 70 70 73 76 75 75 72 68 67 67 68 69 72 73 74 73 72 72 71 71 74 77 79 79 80 78 76 75 74 75 75 74 73 72 71 68 66 65 65 66 67
57 57 56 52 49 49 51 51 49 49 51 52 53 54 53 53 54 55 57 62 68 73 75 76 78 80 81 82 81 75 73 73 73 73 73 73 75 75 75 74 74 75 77 79 80 80 81 81 79 78 77 76 77 77 76 75 73 70 69 68 68 68 68
56 57 56 53 50 48 50 51 50 50 51 53 55 56 56 55 53 53 55 59 65 71 75 78 79 79 78 77 77 76 77 78 78 75 74 74 75 75 75 74 76 77 78 79 80 80 82 82 80 79 78 77 78 79 78 77 75 74 73 74 73 70 69
56 56 56 54 53 51 50 52 51 51 52 54 54 55 57 57 53 51 53 56 61 67 73 77 79 80 77 72 73 76 78 81 80 77 76 76 76 76 75 75 76 77 79 81 81 80 81 83 83 80 79 79 79 80 79 79 79 78 78 78 77 73 71
57 55 55 55 55 55 54 55 54 54 55 56 57 56 58 60 57 53 52 53 60 68 73 76 78 77 77 77 81 82 80 80 82 80 80 80 80 79 79 78 78 79 81 82 83 83 82 83 84 82 81 81 80 80 80 80 81 81 81 80 78 75 71
59 57 58 59 58 58 59 60 59 58 57 57 58 60 62 64 61 58 55 55 61 69 75 78 76 75 79 84 87 86 81 79 80 80 81 84 84 81 81 83 83 83 85 85 84 84 83 84 85 83 83 82 80 78 77 78 79 79 78 78 77 75 72
60 58 59 60 61 61 61 61 61 61 59 58 59 60 64 66 66 63 61 62 67 72 74 73 70 73 82 87 87 85 83 82 81 79 80 85 86 83 84 87 88 89 89 87 83 81 81 83 83 83 83 82 79 76 75 76 77 75 73 73 76 76 75
62 59 58 59 60 61 60 60 60 59 58 58 59 61 63 66 67 66 66 68 70 68 63 59 60 68 77 82 83 82 81 82 82 80 79 83 84 83 83 86 87 88 87 85 83 82 82 82 82 81 81 80 78 76 75 74 74 72 69 70 73 74 76
61 60 59 58 60 62 59 58 58 58 58 57 58 61 62 65 66 66 68 71 68 62 56 55 59 64 69 74 79 79 78 79 80 79 79 81 82 82 83 86 87 85 85 85 86 85 83 82 82 81 80 79 78 76 74 72 70 68 67 69 72 74 78
60 59 60 59 60 62 61 59 58 59 60 58 56 58 60 64 66 66 69 73 68 61 59 58 60 64 67 72 75 75 76 77 77 77 79 80 81 81 84 87 88 87 86 87 87 84 81 81 81 80 79 78 77 75 72 70 69 68 68 70 72 74 78
65 61 62 61 60 60 59 59 59 59 60 59 55 54 56 60 64 65 69 72 67 62 59 57 59 64 69 71 73 74 75 74 73 75 78 79 78 79 81 86 89 90 88 86 84 82 80 80 79 79 79 80 79 75 70 69 69 69 70 72 73 74 76
73 68 66 64 61 59 58 58 59 59 60 60 57 53 53 56 61 63 66 67 64 61 58 56 57 65 70 71 72 74 74 71 71 73 75 76 76 77 79 82 86 87 86 84 83 81 79 78 78 80 81 81 80 75 70 68 70 71 73 76 76 76 77
76 73 69 67 63 59 59 59 58 59 60 61 59 56 54 56 59 62 63 62 61 61 59 57 59 67 73 71 71 74 75 72 72 73 74 76 78 78 79 81 84 85 84 83 82 81 80 80 81 82 83 82 79 76 72 71 72 74 76 79 80 80 81
79 74 68 67 63 58 60 61 58 56 60 61 59 58 57 57 58 60 61 60 60 60 59 58 61 67 69 66 66 71 73 72 72 72 76 79 81 82 83 84 84 84 82 81 81 81 82 83 85 84 83 82 81 79 77 77 79 81 81 82 83 83 83
80 77 70 68 64 58 58 59 55 54 59 61 58 56 57 58 57 59 60 59 59 60 59 57 60 64 64 60 62 66 68 69 71 73 75 77 81 84 83 82 83 84 83 82 81 81 82 84 85 85 83 84 84 83 85 85 86 86 86 85 85 85 83
73 75 73 71 68 63 60 57 53 53 58 59 57 55 57 59 58 58 59 59 59 60 58 56 57 59 57 55 57 61 63 66 70 72 71 74 80 82 76 74 80 83 83 82 81 82 85 86 86 85 84 84 85 86 88 88 87 86 86 86 84 82 80
68 70 70 70 69 66 62 59 55 53 54 55 54 54 56 59 59 58 59 59 60 61 59 56 54 54 52 50 51 54 57 60 62 64 65 68 71 67 61 66 76 80 80 83 84 85 87 88 87 85 84 84 84 84 85 84 83 83 82 79 75 71 69
67 67 66 65 64 61 59 58 58 54 51 51 52 54 57 59 60 59 59 60 62 64 63 58 55 53 51 49 47 46 47 49 50 52 54 55 54 49 48 58 69 74 77 80 81 81 84 86 86 83 81 81 81 81 81 81 81 80 76 71 66 64 62
63 64 64 63 61 58 56 57 58 56 52 50 51 56 59 59 60 61 61 61 65 68 66 59 57 56 53 50 46 42 42 43 43 43 44 43 41 37 38 45 53 61 71 75 73 72 76 78 77 76 75 75 74 70 68 67 68 67 64 61 57 53 49
56 58 60 61 60 57 56 57 58 58 54 51 52 57 61 61 60 61 62 62 65 68 65 59 59 59 55 51 47 43 42 43 42 42 41 39 36 34 34 37 39 45 56 61 59 58 62 65 64 65 64 63 59 53 48 46 46 46 45 44 42 39 37
52 54 56 57 58 55 54 56 57 58 56 53 52 55 61 63 62 62 63 64 65 68 64 58 58 59 55 51 49 46 45 44 43 43 43 40 37 35 34 35 35 37 41 44 44 45 48 49 48 47 46 44 42 39 37 37 37 38 38 37 37 36 35
49 50 52 54 55 52 51 53 55 56 57 55 54 55 60 65 66 65 67 68 69 71 67 58 55 59 57 51 47 47 47 45 42 42 43 42 39 38 36 36 36 37 38 38 39 39 39 37 37 37 37 37 36 35 35 35 35 36 35 35 35 35 32
47 46 48 50 52 51 50 51 55 56 57 57 57 59 61 66 68 69 69 70 70 72 71 62 55 57 55 48 45 45 47 47 43 41 44 44 42 40 39 38 39 39 38 38 39 38 37 37 37 38 37 37 36 35 35 35 35 35 35 35 34 32 30
48 47 46 47 49 50 50 51 54 56 58 58 59 60 61 64 68 70 70 69 70 73 73 67 58 51 47 44 43 44 45 46 44 42 44 43 40 40 39 38 39 39 39 39 39 38 39 39 39 38 38 38 37 37 36 36 36 37 37 36 35 34 32
46 46 45 47 49 50 50 51 53 56 59 60 60 60 61 63 67 72 73 73 71 71 73 70 62 52 45 42 42 42 43 45 43 42 42 40 38 38 39 39 39 39 39 39 39 39 40 39 39 39 39 39 38 38 38 39 39 39 38 38 37 35 35
44 43 43 44 47 49 50 51 54 55 58 61 62 61 61 63 67 70 74 75 72 69 70 70 67 59 49 43 41 42 42 41 40 39 39 37 37 38 39 40 40 40 40 40 40 40 40 40 40 40 40 39 40 40 40 41 40 40 40 38 37 35 35
45 43 41 42 44 47 48 50 54 56 58 61 64 63 62 64 64 65 70 75 72 67 67 70 70 66 57 46 43 44 44 42 41 39 37 37 37 37 38 40 40 41 41 41 41 42 42 41 41 41 42 42 42 42 42 42 41 40 39 37 36 36 37
49 45 43 42 43 45 47 49 53 57 58 61 66 66 64 64 64 64 68 74 74 72 73 74 72 69 64 55 50 48 47 45 43 40 39 39 39 38 38 40 40 42 43 44 44 43 43 43 44 44 45 46 46 47 47 45 42 40 38 38 38 40 41
52 49 47 45 44 45 46 48 52 56 58 60 66 69 68 66 67 67 67 69 71 74 78 80 76 72 69 64 56 52 49 46 43 42 41 41 41 41 40 40 41 43 44 46 46 45 44 45 45 45 46 46 47 49 49 46 43 42 40 39 39 41 41
55 52 50 48 46 46 46 47 49 53 57 59 63 68 71 71 71 71 69 68 70 73 77 80 79 76 74 70 61 55 52 47 42 40 42 43 44 45 44 42 42 43 44 45 45 44 43 43 43 43 43 44 45 47 46 44 44 44 42 40 39 39 39
58 55 52 50 48 48 47 47 47 49 54 58 61 65 70 72 73 74 74 71 71 75 78 80 80 78 74 70 64 58 54 50 44 40 40 41 43 46 46 45 44 44 44 44 44 43 42 42 42 41 41 41 42 43 43 43 44 44 43 42 42 41 41
61 58 55 52 51 50 50 49 48 48 52 56 59 61 66 71 73 76 77 74 72 75 80 81 79 75 70 66 61 57 53 49 46 43 40 39 39 41 44 45 45 44 43 43 43 43 44 44 44 44 43 41 40 39 40 42 44 45 46 45 46 45 45

ECMWFFLT1_prec_cthk_222.txt.gz
RH
43 44 45 46 47 50 50 51 52 53 56 60 61 60 59 63 66 67 72 75 75 79 84 86 81 76 75 71 66 65 63 60 56 53 51 50 51 56 58 59 58 57 57 58 58 57 57 58 58 58 58 58 58 58 54 50 50 53 55 57 59 60 61
47 47 49 50 50 52 54 55 55 56 57 60 62 59 56 59 63 65 70 75 75 76 81 82 80 78 74 68 65 65 63 62 60 57 54 52 51 53 55 57 58 58 58 57 56 57 58 59 59 59 59 58 59 59 56 52 51 55 58 58 58 60 59
49 49 51 52 53 54 56 57 57 58 58 60 61 58 56 57 60 63 68 74 76 76 79 80 78 79 76 69 66 66 63 62 62 60 58 56 55 55 56 56 56 57 57 56 55 55 56 57 57 59 60 59 59 59 59 57 55 56 58 57 57 60 59
51 51 52 53 55 55 56 57 58 58 58 60 61 61 60 59 59 59 64 72 78 78 81 81 78 78 78 74 71 68 66 65 64 64 63 62 60 58 58 59 58 58 58 57 56 54 54 55 56 58 59 58 58 60 61 60 59 59 58 57 59 62 62
51 52 53 54 55 56 57 57 58 58 58 59 60 62 62 62 62 60 60 68 77 80 80 79 78 77 75 75 74 72 69 67 66 65 65 66 64 62 61 60 61 62 62 61 59 57 55 53 55 59 60 59 59 61 63 62 63 63 62 60 61 64 65
52 52 52 52 53 55 57 58 57 58 58 58 59 62 64 63 63 62 60 63 71 79 82 80 79 78 76 74 74 72 69 67 66 66 65 65 65 63 61 60 62 64 64 64 64 62 59 56 57 60 62 63 63 64 66 67 67 68 66 64 63 65 66
54 55 53 52 51 52 55 57 57 57 58 58 59 62 64 64 63 64 62 62 63 69 78 82 81 80 80 79 76 72 68 65 65 65 65 65 65 63 62 60 60 62 65 66 66 65 64 61 61 63 65 67 68 68 68 70 70 70 69 67 66 66 67
57 58 57 54 52 52 53 55 57 58 59 60 62 64 65 66 65 64 64 65 64 63 67 74 78 78 79 80 78 74 69 67 65 64 64 66 68 67 65 63 63 62 64 66 66 66 66 65 65 67 69 71 73 73 73 74 72 70 70 71 71 69 69
62 62 62 60 57 55 54 54 56 59 60 61 63 65 67 67 67 65 64 64 65 66 64 65 68 71 75 78 79 78 75 73 71 68 66 66 68 70 68 67 67 66 65 65 66 66 65 65 67 71 73 73 74 75 76 76 74 72 72 72 73 71 70
65 65 65 64 62 60 57 56 56 58 60 62 65 67 69 70 69 67 66 64 63 66 67 65 64 66 69 72 75 77 77 78 76 73 71 67 66 68 69 69 69 68 66 65 65 65 66 66 69 74 76 73 72 73 73 75 75 74 74 74 73 72 70
67 67 67 66 66 65 62 60 58 58 59 61 66 68 69 70 69 67 66 66 64 64 65 65 64 65 65 66 69 71 74 78 79 77 75 72 69 68 67 67 67 66 65 64 63 64 67 70 72 74 74 71 71 72 72 73 74 73 74 76 76 74 72
69 68 67 67 68 68 67 64 60 58 60 62 65 67 67 67 68 68 66 66 66 66 65 64 63 64 63 63 64 66 69 73 76 77 77 76 76 72 67 64 66 66 66 65 63 63 66 70 73 73 72 71 70 72 72 74 75 73 73 75 77 76 74
77 75 72 69 66 67 69 67 65 62 62 64 65 65 64 64 67 69 68 67 66 67 69 68 63 60 60 61 62 64 65 68 71 74 77 77 76 74 71 70 69 69 68 67 65 65 66 69 72 73 72 72 72 73 74 75 75 73 72 73 75 76 76
74 79 78 75 72 72 70 68 66 64 64 66 67 64 63 64 66 69 69 68 66 67 70 71 67 61 58 59 60 61 63 65 68 70 73 75 74 75 77 76 73 72 71 70 68 68 67 69 73 74 74 74 73 73 75 76 75 75 73 73 73 74 75
59 62 65 68 74 77 76 73 69 65 65 69 71 67 63 64 65 67 69 67 65 66 69 69 68 63 57 56 59 61 61 64 66 67 68 70 73 75 77 75 73 73 74 74 73 72 71 72 74 75 75 75 73 74 75 76 77 78 77 76 74 73 74
55 53 52 55 61 66 71 73 73 71 70 71 74 71 67 67 66 65 67 67 64 63 64 64 65 62 57 57 60 60 59 60 61 61 63 67 71 74 74 74 73 74 75 76 76 76 74 74 74 74 75 76 75 75 76 76 77 77 77 77 77 75 74
54 54 52 51 53 57 61 61 63 69 74 73 74 74 70 69 69 65 65 66 64 62 62 64 65 61 58 58 59 57 56 57 56 56 59 64 69 73 74 74 74 74 76 78 78 76 73 73 73 74 76 78 78 78 79 78 79 77 77 78 77 76 76
48 50 52 52 52 54 57 56 52 58 71 74 73 75 73 71 71 68 64 65 65 64 64 66 64 62 59 58 57 55 54 56 57 58 60 63 68 72 73 73 74 75 76 78 79 75 72 71 71 73 76 77 78 79 78 78 80 81 79 79 77 76 77
43 45 48 51 53 53 54 55 51 52 64 72 72 74 73 72 74 72 65 63 64 63 64 66 64 62 62 60 57 55 54 57 59 60 60 64 68 72 72 71 73 75 76 77 76 74 73 73 72 73 75 76 78 80 79 80 83 84 82 81 78 77 77
41 42 44 46 51 53 52 54 55 55 61 70 74 74 71 70 73 73 67 64 63 61 63 65 65 64 63 60 56 54 55 58 60 60 62 67 69 71 71 70 72 74 75 75 75 74 75 75 73 73 76 79 82 83 83 84 85 85 84 82 79 78 77
41 42 44 44 47 51 52 53 56 59 61 65 71 72 70 67 68 69 68 66 62 59 60 64 65 66 65 61 56 53 54 58 60 61 63 65 65 67 69 71 73 74 75 75 76 78 79 78 75 76 82 88 92 91 89 88 87 87 86 82 78 78 79
41 41 44 46 46 49 51 51 54 59 61 62 65 69 67 64 64 65 66 66 62 58 58 63 66 67 66 63 58 54 54 58 59 59 59 60 62 65 68 70 73 77 79 80 82 82 81 80 78 80 86 93 96 95 93 91 89 88 86 81 79 80 81
41 41 42 44 46 47 49 51 53 57 61 63 65 68 67 62 61 63 64 65 63 58 57 61 65 68 68 65 59 56 56 58 58 56 55 56 60 62 66 70 72 77 82 84 85 86 85 83 82 81 84 89 91 92 92 90 88 87 86 83 81 81 81
41 41 42 44 45 46 47 49 51 54 59 63 64 67 68 63 59 60 64 66 63 60 60 61 63 68 72 67 60 57 58 58 58 56 54 55 58 60 66 70 70 73 80 83 85 87 87 87 87 87 85 86 87 88 88 88 88 87 86 85 84 83 83
44 43 43 43 44 45 46 48 48 50 55 61 63 64 65 64 60 59 63 66 64 64 64 62 61 67 71 68 62 58 57 58 58 57 54 55 57 61 65 67 66 69 76 81 85 89 89 89 90 90 88 88 88 88 88 89 89 89 89 87 87 86 85
47 47 46 45 44 45 45 46 48 49 51 56 61 62 63 64 63 62 64 66 66 66 66 63 63 67 68 65 63 60 57 57 57 55 52 53 58 64 64 61 58 62 69 77 84 88 88 87 89 90 90 89 89 89 90 91 90 90 91 90 89 89 86
49 49 48 48 47 47 46 46 48 50 50 52 55 59 64 66 66 65 65 67 67 68 68 65 65 69 70 65 62 61 60 59 57 54 51 52 58 64 62 55 52 56 61 67 76 83 85 85 87 89 90 89 89 89 89 89 89 90 90 89 89 88 86
51 51 50 50 50 49 48 47 47 48 49 50 51 54 60 64 65 64 64 66 67 66 66 66 64 67 69 65 62 63 62 60 59 56 51 51 56 60 59 54 52 54 55 57 64 74 81 82 82 84 86 86 87 88 87 87 87 87 86 85 84 84 82
51 52 53 53 52 51 51 50 49 48 49 49 49 52 56 58 61 62 61 63 64 62 61 65 65 65 65 64 63 65 64 62 60 55 52 51 55 60 60 55 52 53 52 51 54 63 71 73 72 73 76 77 77 77 79 81 82 81 79 78 76 73 69
51 54 57 57 56 56 55 53 51 50 49 47 48 51 54 55 58 60 60 61 62 58 58 64 68 67 66 64 64 65 67 67 63 57 54 54 55 59 61 59 54 52 50 48 47 52 58 61 60 59 62 66 66 65 65 66 67 67 67 66 63 58 54
54 56 58 59 60 59 58 56 54 52 50 47 46 48 51 52 55 58 61 62 60 57 58 63 67 71 70 68 65 65 69 71 66 59 56 56 55 57 60 60 56 52 49 46 43 44 47 48 47 47 49 53 55 55 54 51 49 48 49 48 45 43 41
57 58 60 62 62 62 61 59 57 54 52 48 46 47 48 48 50 55 60 62 61 60 61 61 65 71 73 71 69 68 68 71 70 63 56 53 53 55 58 60 58 53 48 43 40 40 42 42 41 42 43 44 45 45 45 43 40 39 39 37 36 36 34
60 62 64 64 66 65 64 62 59 58 55 51 48 48 47 46 46 49 55 60 61 62 62 61 65 72 73 71 71 72 72 72 72 67 59 53 52 55 59 61 60 53 45 41 39 41 41 40 40 41 41 42 42 41 41 39 39 38 37 37 37 37 34
63 65 66 66 68 67 67 65 63 62 59 55 51 48 46 44 43 45 50 55 59 61 61 62 65 71 72 68 69 74 79 77 75 71 63 57 56 58 61 64 62 53 45 43 43 43 42 41 41 40 39 39 40 39 39 39 38 37 37 38 39 39 36
64 66 68 68 68 69 69 68 67 65 63 59 54 49 45 43 43 43 46 50 55 58 60 62 63 68 72 69 67 72 79 78 76 74 67 61 61 62 65 66 62 53 47 46 46 45 45 44 42 39 36 35 37 38 39 39 40 38 37 37 38 39 39
65 67 70 71 71 72 71 71 70 68 66 64 59 52 47 44 43 43 45 48 52 55 57 60 62 67 74 73 69 71 76 76 75 76 71 65 64 66 65 64 58 50 46 47 45 42 42 42 40 38 35 34 36 37 39 40 42 41 37 35 34 35 36
71 72 74 74 73 74 73 72 71 70 69 68 63 55 49 47 44 43 44 48 52 53 56 59 62 67 74 74 68 70 75 77 76 76 74 69 67 67 66 61 54 47 44 44 43 40 38 36 36 36 36 37 38 39 41 43 43 40 37 34 35 35 35
75 75 75 75 75 75 74 72 71 70 69 68 64 57 53 51 48 44 47 51 53 53 55 59 62 66 71 72 69 68 73 77 77 76 75 73 72 70 67 61 52 46 43 42 40 38 35 35 35 34 34 36 39 41 42 43 42 39 37 37 38 38 37